Погода в Студеном

Россия / Оренбургская область     51°35′32″N   53°09′37″E
темп.,
°C
ветер,
м/с
пор.,
м/с
влажн.,
%
обл.,
%
осадки,
мм/ч
давл.,
гПа
погр.,
м
26 июля, пн
пн2623:00+19ссв38382 0.0 1019177
02:00+16с411420 0.0 1021260
05:00+14с36420 0.0 1021108
08:00+17ссз47370 0.0 1022317
11:00+22с66280 0.0 10221684
14:00+25с66232 0.0 10212353
17:00+26с66225 0.0 10202692
20:00+24с462549 0.0 1020806
27 июля, вт
вт2723:00+19ссз38358 0.0 1020144
02:00+17ссз46429 0.0 1020101
05:00+15с23440 0.0 102025
08:00+19с34374 0.0 1020199
11:00+24ссз35275 0.0 10192152
14:00+27сз452312 0.0 10182984
17:00+28ссз66219 0.0 10153240
20:00+25сз67307 0.0 10161047
28 июля, ср
ср2823:00+20сз34445 0.0 101646
02:00+20сз36459 0.0 1015153
05:00+17ссз36575 0.0 1015120
08:00+19с59620 0.0 1016466
11:00+24с68330 0.0 10161944
14:00+27с56255 0.0 10142601
17:00+28ссз56225 0.0 10133078
20:00+26ссз67233 0.0 10131154
29 июля, чт
чт2923:00+20с35330 0.0 101563
02:00+17вюв22430 0.0 101518
05:00+17юв11440 0.0 101511
08:00+20ю113691 0.0 1015138
11:00+26юз332599 0.0 10141161
14:00+30юз452349 0.0 10132802
17:00+31юз4623100 0.0 10113135
20:00+29ююз5926100 0.0 1010405
30 июля, пт
пт3023:00+21ссв2363100 0.3 101192
02:00+20вюв3768100 0.1 1010198
05:00+22юз6114994 0.1 1009316
08:00+22з4755100 0.1 1009316
11:00+29з68395 0.1 10091555
14:00+32зсз793073 0.0 10083055
17:00+32зсз8102649 0.0 10083052
20:00+30сз683121 0.0 1008982